QPF
0.00 0.01 0.09 0.08 0.09 0.04 0.00 0.00 0.00 0.00 0.00 0.00 0.02 0.01 0.00 0.00 0.00 0.00 0.00 0.00 0.00 0.00 0.00 0.00 0.00 0.00 0.00 0.00 0.00 0.00 0.00 0.00 0.00 0.00 0.00 0.00 0.00 0.00 0.00 0.00 0.02 0.01 0.00 0.00 0.01 0.01 0.00 0.00 0.00
0.02 0.05 0.04 0.08 0.08 0.00 0.00 0.00 0.00 0.00 0.00 0.00 0.03 0.22 0.01 0.00 0.00 0.00 0.00 0.00 0.00 0.00 0.00 0.00 0.00 0.00 0.00 0.00 0.01 0.01 0.01 0.01 0.00 0.00 0.00 0.00 0.00 0.00 0.03 0.02 0.01 0.00 0.00 0.00 0.02 0.01 0.00 0.00 0.00
0.18 0.17 0.12 0.09 0.00 0.00 0.00 0.00 0.00 0.00 0.00 0.00 0.00 0.09 0.00 0.00 0.00 0.00 0.00 0.00 0.00 0.00 0.00 0.00 0.00 0.00 0.00 0.00 0.01 0.01 0.01 0.00 0.00 0.00 0.00 0.00 0.00 0.00 0.00 0.00 0.00 0.00 0.00 0.00 0.00 0.00 0.00 0.00 0.00
0.15 0.35 0.03 0.01 0.00 0.00 0.00 0.01 0.06 0.00 0.00 0.00 0.00 0.00 0.00 0.00 0.00 0.00 0.00 0.00 0.00 0.00 0.00 0.00 0.00 0.00 0.00 0.00 0.00 0.00 0.00 0.00 0.00 0.00 0.00 0.00 0.00 0.01 0.00 0.00 0.00 0.00 0.00 0.00 0.00 0.00 0.00 0.00 0.00
0.20 0.35 0.00 0.00 0.00 0.00 0.00 0.03 0.03 0.00 0.00 0.00 0.00 0.00 0.00 0.00 0.00 0.00 0.00 0.00 0.00 0.00 0.00 0.00 0.00 0.00 0.00 0.00 0.00 0.00 0.00 0.00 0.00 0.00 0.00 0.00 0.00 0.00 0.00 0.00 0.00 0.00 0.00 0.00 0.00 0.00 0.00 0.00 0.00
0.01 0.03 0.01 0.00 0.00 0.00 0.01 0.03 0.06 0.00 0.00 0.00 0.00 0.00 0.00 0.00 0.00 0.00 0.00 0.00 0.00 0.00 0.00 0.00 0.00 0.00 0.00 0.00 0.00 0.00 0.00 0.00 0.00 0.00 0.00 0.00 0.00 0.00 0.00 0.00 0.00 0.00 0.00 0.00 0.00 0.00 0.00 0.00 0.00
0.01 0.01 0.00 0.00 0.00 0.00 0.00 0.00 0.00 0.00 0.00 0.00 0.00 0.00 0.00 0.00 0.00 0.00 0.00 0.00 0.00 0.00 0.00 0.00 0.00 0.00 0.00 0.00 0.00 0.00 0.00 0.00 0.00 0.00 0.00 0.00 0.00 0.00 0.00 0.00 0.00 0.00 0.00 0.00 0.00 0.00 0.00 0.00 0.00
0.01 0.00 0.00 0.00 0.00 0.00 0.00 0.00 0.00 0.00 0.00 0.00 0.00 0.00 0.00 0.00 0.00 0.00 0.00 0.00 0.00 0.00 0.00 0.00 0.00 0.00 0.00 0.00 0.00 0.00 0.00 0.00 0.00 0.00 0.00 0.00 0.00 0.01 0.00 0.00 0.00 0.00 0.00 0.00 0.00 0.00 0.00 0.00 0.00
0.00 0.00 0.00 0.00 0.00 0.00 0.00 0.00 0.00 0.00 0.00 0.00 0.00 0.00 0.00 0.00 0.00 0.00 0.00 0.00 0.00 0.00 0.00 0.00 0.00 0.00 0.00 0.00 0.00 0.00 0.00 0.00 0.00 0.00 0.01 0.01 0.06 0.03 0.01 0.00 0.00 0.00 0.00 0.00 0.00 0.00 0.00 0.00 0.00
0.00 0.00 0.00 0.00 0.00 0.00 0.00 0.00 0.02 0.01 0.00 0.00 0.00 0.00 0.00 0.00 0.00 0.00 0.00 0.00 0.00 0.00 0.00 0.00 0.00 0.00 0.00 0.00 0.00 0.00 0.00 0.00 0.00 0.00 0.00 0.00 0.01 0.00 0.01 0.02 0.01 0.00 0.00 0.00 0.00 0.00 0.00 0.00 0.00
0.00 0.00 0.00 0.00 0.00 0.00 0.00 0.00 0.00 0.00 0.00 0.00 0.00 0.00 0.00 0.00 0.00 0.00 0.00 0.00 0.00 0.00 0.00 0.00 0.01 0.00 0.00 0.01 0.00 0.00 0.00 0.00 0.00 0.00 0.00 0.01 0.05 0.05 0.01 0.01 0.01 0.05 0.05 0.01 0.01 0.00 0.00 0.01 0.01
0.00 0.00 0.00 0.00 0.00 0.00 0.00 0.00 0.00 0.00 0.00 0.00 0.00 0.00 0.00 0.00 0.00 0.00 0.00 0.00 0.00 0.00 0.00 0.00 0.00 0.00 0.00 0.01 0.00 0.00 0.00 0.00 0.00 0.00 0.00 0.06 0.03 0.05 0.04 0.03 0.05 0.01 0.07 0.03 0.00 0.00 0.00 0.00 0.04
0.00 0.00 0.00 0.00 0.00 0.00 0.00 0.00 0.00 0.00 0.00 0.00 0.00 0.00 0.00 0.00 0.00 0.00 0.00 0.00 0.00 0.00 0.00 0.00 0.00 0.00 0.00 0.00 0.00 0.00 0.00 0.00 0.00 0.00 0.00 0.01 0.10 0.14 0.08 0.16 0.08 0.07 0.09 0.05 0.00 0.01 0.04 0.00 0.00
0.00 0.00 0.00 0.00 0.00 0.00 0.00 0.00 0.07 0.00 0.00 0.00 0.00 0.00 0.00 0.00 0.00 0.00 0.00 0.00 0.00 0.00 0.00 0.00 0.00 0.00 0.00 0.00 0.00 0.00 0.00 0.00 0.01 0.00 0.01 0.02 0.10 0.07 0.12 0.19 0.28 0.29 0.15 0.06 0.09 0.07 0.05 0.06 0.01
0.00 0.00 0.00 0.00 0.01 0.00 0.00 0.00 0.02 0.00 0.00 0.00 0.00 0.00 0.00 0.00 0.00 0.00 0.00 0.00 0.00 0.00 0.00 0.00 0.00 0.00 0.00 0.00 0.00 0.00 0.00 0.00 0.01 0.00 0.02 0.12 0.19 0.15 0.19 0.25 0.17 0.11 0.08 0.07 0.08 0.11 0.05 0.14 0.09
0.00 0.00 0.00 0.01 0.00 0.00 0.00 0.00 0.00 0.00 0.00 0.01 0.00 0.00 0.00 0.00 0.00 0.00 0.00 0.00 0.00 0.00 0.00 0.00 0.00 0.00 0.00 0.00 0.00 0.00 0.00 0.00 0.00 0.00 0.04 0.14 0.18 0.10 0.09 0.17 0.15 0.09 0.11 0.10 0.07 0.08 0.03 0.09 0.03
0.00 0.00 0.00 0.01 0.01 0.00 0.00 0.00 0.04 0.00 0.00 0.01 0.01 0.00 0.00 0.00 0.00 0.00 0.00 0.00 0.00 0.00 0.00 0.00 0.00 0.00 0.00 0.00 0.00 0.00 0.00 0.00 0.00 0.01 0.04 0.07 0.07 0.10 0.08 0.09 0.10 0.09 0.11 0.05 0.01 0.00 0.00 0.00 0.01
0.00 0.01 0.01 0.01 0.03 0.00 0.00 0.00 0.00 0.00 0.00 0.00 0.01 0.00 0.00 0.00 0.00 0.00 0.00 0.00 0.00 0.00 0.00 0.00 0.00 0.00 0.00 0.00 0.00 0.00 0.00 0.00 0.00 0.00 0.12 0.38 0.25 0.12 0.12 0.13 0.05 0.02 0.03 0.01 0.00 0.00 0.00 0.00 0.00
0.00 0.00 0.01 0.00 0.01 0.00 0.00 0.00 0.00 0.00 0.00 0.03 0.02 0.02 0.01 0.00 0.00 0.00 0.00 0.00 0.00 0.00 0.00 0.00 0.00 0.00 0.00 0.00 0.00 0.00 0.00 0.00 0.00 0.05 0.42 0.29 0.26 0.11 0.14 0.06 0.04 0.01 0.00 0.00 0.00 0.00 0.00 0.00 0.00
0.00 0.00 0.00 0.00 0.00 0.00 0.00 0.00 0.00 0.00 0.01 0.08 0.07 0.05 0.03 0.00 0.00 0.00 0.00 0.00 0.00 0.00 0.00 0.00 0.00 0.00 0.00 0.00 0.00 0.00 0.00 0.00 0.00 0.16 0.22 0.19 0.15 0.07 0.05 0.04 0.00 0.00 0.00 0.00 0.00 0.00 0.00 0.00 0.00
0.00 0.00 0.00 0.00 0.00 0.00 0.00 0.00 0.00 0.01 0.08 0.15 0.04 0.06 0.08 0.03 0.00 0.00 0.00 0.00 0.00 0.00 0.00 0.00 0.00 0.00 0.00 0.00 0.00 0.00 0.02 0.05 0.08 0.13 0.09 0.06 0.02 0.01 0.02 0.01 0.00 0.00 0.00 0.00 0.00 0.00 0.00 0.00 0.00
0.00 0.00 0.00 0.00 0.00 0.00 0.00 0.00 0.00 0.00 0.00 0.00 0.03 0.08 0.11 0.03 0.00 0.00 0.00 0.00 0.00 0.00 0.00 0.00 0.00 0.00 0.00 0.00 0.00 0.00 0.00 0.02 0.01 0.01 0.03 0.03 0.01 0.01 0.00 0.00 0.00 0.00 0.00 0.00 0.00 0.00 0.00 0.00 0.00
0.00 0.00 0.00 0.00 0.00 0.00 0.00 0.00 0.00 0.00 0.00 0.00 0.01 0.05 0.05 0.02 0.01 0.00 0.00 0.00 0.00 0.00 0.00 0.00 0.00 0.00 0.00 0.00 0.01 0.01 0.00 0.00 0.02 0.05 0.07 0.03 0.01 0.01 0.00 0.00 0.00 0.00 0.00 0.00 0.00 0.00 0.00 0.00 0.00
0.00 0.00 0.00 0.00 0.00 0.00 0.00 0.00 0.00 0.00 0.01 0.00 0.00 0.20 0.02 0.00 0.00 0.01 0.00 0.00 0.00 0.00 0.00 0.00 0.00 0.00 0.00 0.00 0.00 0.00 0.01 0.07 0.21 0.16 0.08 0.03 0.00 0.01 0.00 0.00 0.00 0.00 0.00 0.00 0.00 0.00 0.00 0.00 0.00
0.00 0.00 0.00 0.00 0.00 0.00 0.00 0.00 0.00 0.00 0.00 0.00 0.00 0.02 0.01 0.00 0.00 0.01 0.01 0.00 0.00 0.00 0.00 0.00 0.00 0.00 0.00 0.00 0.00 0.00 0.01 0.03 0.06 0.06 0.07 0.05 0.02 0.02 0.00 0.00 0.00 0.00 0.00 0.00 0.00 0.00 0.00 0.00 0.00
0.00 0.00 0.00 0.00 0.00 0.00 0.00 0.00 0.00 0.00 0.00 0.00 0.00 0.00 0.05 0.01 0.02 0.01 0.00 0.00 0.00 0.00 0.00 0.00 0.00 0.00 0.00 0.00 0.00 0.00 0.00 0.01 0.02 0.02 0.05 0.10 0.03 0.00 0.00 0.00 0.00 0.00 0.00 0.00 0.00 0.00 0.00 0.00 0.00
0.00 0.00 0.00 0.00 0.00 0.00 0.00 0.00 0.00 0.00 0.00 0.00 0.00 0.00 0.02 0.06 0.07 0.06 0.02 0.00 0.00 0.00 0.00 0.00 0.00 0.00 0.00 0.00 0.00 0.00 0.00 0.00 0.01 0.03 0.01 0.01 0.00 0.00 0.00 0.00 0.00 0.00 0.00 0.00 0.00 0.00 0.00 0.00 0.00
0.00 0.00 0.00 0.00 0.00 0.00 0.00 0.00 0.00 0.00 0.00 0.00 0.00 0.02 0.02 0.02 0.12 0.03 0.02 0.00 0.00 0.00 0.00 0.00 0.00 0.00 0.00 0.00 0.00 0.00 0.00 0.01 0.02 0.03 0.01 0.00 0.00 0.00 0.00 0.00 0.00 0.00 0.00 0.00 0.00 0.00 0.00 0.00 0.00
0.00 0.00 0.00 0.00 0.00 0.00 0.00 0.00 0.00 0.00 0.00 0.00 0.00 0.00 0.00 0.00 0.04 0.01 0.01 0.00 0.00 0.00 0.00 0.00 0.00 0.00 0.00 0.00 0.00 0.00 0.00 0.00 0.01 0.01 0.02 0.00 0.00 0.00 0.00 0.00 0.00 0.00 0.00 0.00 0.00 0.00 0.00 0.00 0.00
0.00 0.00 0.00 0.00 0.00 0.00 0.00 0.00 0.00 0.00 0.00 0.00 0.00 0.00 0.00 0.00 0.02 0.00 0.00 0.00 0.00 0.00 0.00 0.00 0.00 0.00 0.00 0.00 0.00 0.00 0.02 0.02 0.00 0.02 0.01 0.01 0.01 0.00 0.00 0.00 0.00 0.00 0.00 0.00 0.00 0.00 0.00 0.00 0.00
MSLP
1006.35 1006.87 1006.93 1006.94 1006.67 1005.69 1005.27 1004.40 1003.90 1003.82 1004.81 1005.39 1004.94 1005.72 1005.90 1006.19 1006.97 1009.34 1009.83 1010.76 1011.57 1012.48 1012.91 1013.27 1013.54 1013.82 1014.14 1014.42 1014.85 1014.86 1014.82 1014.91 1015.26 1015.37 1015.49 1015.66 1015.91 1016.01 1016.08 1016.26 1016.24 1016.39 1016.48 1016.51 1016.68 1016.91 1017.03 1017.14 1017.19
1005.99 1006.84 1006.69 1006.16 1005.63 1005.12 1005.09 1004.33 1003.86 1003.90 1005.42 1004.60 1005.06 1006.59 1006.11 1006.94 1006.94 1009.10 1010.21 1010.96 1011.45 1012.32 1012.93 1013.34 1013.62 1013.86 1014.07 1014.46 1014.78 1014.69 1014.84 1015.20 1015.41 1015.51 1015.49 1015.72 1015.83 1016.00 1016.20 1016.17 1016.34 1016.40 1016.50 1016.53 1016.58 1016.84 1017.08 1017.17 1017.28
1007.73 1006.26 1006.28 1005.59 1005.04 1004.74 1004.90 1004.11 1004.18 1003.62 1003.97 1004.54 1006.31 1006.59 1006.37 1007.35 1007.86 1008.76 1010.18 1010.82 1011.51 1012.37 1012.95 1013.45 1013.73 1014.02 1014.29 1014.57 1014.69 1014.88 1015.08 1015.30 1015.43 1015.51 1015.67 1015.64 1015.79 1016.04 1016.13 1016.26 1016.45 1016.51 1016.52 1016.57 1016.65 1016.79 1016.95 1017.12 1017.24
1006.52 1006.73 1005.21 1005.28 1004.79 1004.57 1004.97 1005.29 1004.50 1003.74 1004.14 1004.65 1005.46 1006.54 1006.91 1006.90 1007.92 1008.94 1009.92 1010.66 1011.60 1012.55 1013.20 1013.57 1013.89 1014.16 1014.39 1014.57 1014.76 1014.98 1015.21 1015.34 1015.39 1015.57 1015.62 1015.66 1015.90 1016.02 1016.19 1016.41 1016.51 1016.55 1016.65 1016.65 1016.73 1016.78 1016.90 1017.13 1017.21
1006.30 1006.81 1005.82 1005.17 1005.24 1004.88 1004.10 1003.53 1003.65 1003.63 1004.42 1005.09 1005.57 1006.72 1007.32 1007.50 1008.13 1008.89 1009.62 1010.72 1011.65 1012.70 1013.37 1013.75 1014.01 1014.30 1014.56 1014.74 1014.85 1014.99 1015.17 1015.33 1015.47 1015.57 1015.70 1015.83 1015.92 1016.05 1016.30 1016.39 1016.50 1016.55 1016.69 1016.78 1016.78 1016.81 1016.85 1017.06 1017.17
1005.27 1005.24 1005.65 1004.88 1003.81 1004.00 1003.50 1003.49 1004.27 1003.59 1004.45 1005.44 1006.06 1006.92 1007.73 1007.72 1008.11 1008.55 1009.63 1010.82 1011.56 1012.46 1013.32 1013.79 1014.15 1014.42 1014.60 1014.73 1014.90 1015.02 1015.21 1015.42 1015.54 1015.64 1015.87 1015.87 1015.99 1016.15 1016.28 1016.43 1016.57 1016.57 1016.64 1016.77 1016.85 1016.84 1016.87 1016.95 1017.03
1005.40 1005.12 1004.80 1003.58 1003.04 1002.61 1002.83 1003.15 1002.69 1003.17 1004.14 1004.96 1005.84 1006.98 1007.83 1007.98 1007.97 1008.53 1009.63 1010.74 1011.60 1012.39 1013.15 1013.82 1014.19 1014.47 1014.61 1014.72 1014.92 1015.03 1015.22 1015.47 1015.71 1015.79 1015.83 1015.87 1016.07 1016.22 1016.36 1016.49 1016.61 1016.68 1016.66 1016.65 1016.78 1016.78 1016.78 1016.89 1016.99
1003.10 1003.14 1003.72 1002.64 1002.47 1002.07 1001.97 1002.18 1002.40 1002.72 1003.72 1004.40 1004.91 1006.66 1007.51 1007.71 1007.71 1008.33 1009.43 1010.35 1011.39 1012.32 1012.94 1013.59 1014.07 1014.36 1014.59 1014.68 1014.79 1015.04 1015.27 1015.50 1015.68 1015.74 1015.81 1015.85 1015.93 1016.13 1016.32 1016.54 1016.63 1016.74 1016.76 1016.69 1016.66 1016.74 1016.78 1016.79 1016.86
999.70 1001.30 1002.03 1001.72 1001.60 1001.52 1001.61 1001.99 1002.48 1002.85 1003.52 1003.46 1004.31 1005.45 1006.64 1007.31 1007.55 1008.17 1009.48 1010.57 1011.44 1012.14 1012.74 1013.19 1013.64 1014.11 1014.35 1014.59 1014.74 1014.94 1015.17 1015.33 1015.46 1015.64 1015.73 1015.91 1016.05 1016.08 1016.12 1016.18 1016.28 1016.32 1016.48 1016.57 1016.61 1016.70 1016.74 1016.74 1016.77
999.63 1000.64 1000.69 1000.67 1001.35 1001.07 1001.20 1001.67 1002.64 1003.24 1003.71 1004.17 1005.05 1005.96 1006.68 1007.14 1007.63 1008.21 1009.27 1010.32 1011.06 1011.74 1012.30 1012.67 1013.10 1013.55 1014.03 1014.22 1014.59 1014.89 1014.94 1015.09 1015.28 1015.48 1015.75 1016.00 1016.06 1016.14 1016.06 1016.00 1015.92 1015.95 1016.10 1016.38 1016.51 1016.51 1016.52 1016.55 1016.67
999.10 999.74 1000.03 1000.20 1000.34 1000.64 1001.01 1001.33 1002.04 1003.19 1003.81 1004.06 1005.05 1006.10 1006.78 1007.16 1007.57 1008.02 1008.74 1009.58 1010.46 1010.91 1011.41 1012.09 1012.45 1012.81 1013.65 1013.92 1014.50 1014.79 1014.84 1014.94 1015.05 1015.26 1015.42 1015.56 1015.83 1016.31 1016.24 1016.14 1015.98 1016.14 1015.94 1016.13 1016.28 1016.31 1016.23 1016.30 1016.46
999.35 999.03 999.48 1000.04 1000.05 1000.48 1001.01 1001.42 1002.01 1002.45 1003.02 1003.88 1004.97 1005.99 1006.79 1007.21 1007.46 1007.84 1008.45 1009.13 1010.01 1010.65 1010.78 1011.39 1011.92 1012.55 1012.96 1013.09 1013.93 1014.19 1014.42 1014.46 1014.65 1014.94 1015.35 1015.83 1015.92 1015.61 1015.98 1015.82 1016.23 1016.05 1016.10 1016.14 1015.97 1016.16 1016.12 1016.08 1016.07
998.95 999.04 999.41 999.88 1000.17 1000.67 1001.85 1002.70 1003.18 1003.14 1003.48 1004.20 1005.12 1006.03 1006.83 1007.25 1007.32 1007.65 1008.11 1008.74 1009.32 1010.12 1010.38 1011.02 1011.70 1012.34 1012.76 1013.43 1013.72 1013.66 1013.80 1014.10 1014.21 1014.71 1014.97 1015.32 1015.57 1015.80 1015.58 1015.69 1015.95 1016.06 1015.94 1015.93 1016.02 1016.04 1015.94 1015.90 1015.76
998.85 998.83 999.25 999.80 1000.38 1000.88 1002.06 1003.10 1002.77 1003.99 1003.75 1004.81 1005.45 1006.05 1006.75 1007.10 1007.24 1007.32 1007.97 1008.74 1009.12 1009.74 1010.41 1010.84 1011.59 1012.24 1012.61 1013.15 1013.38 1013.32 1013.21 1013.58 1014.01 1014.44 1014.78 1015.06 1015.77 1015.62 1015.89 1016.12 1016.36 1015.83 1015.36 1015.34 1015.81 1015.89 1015.64 1015.75 1015.48
999.08 999.36 999.55 1000.13 1000.81 1001.66 1002.19 1004.09 1004.39 1004.40 1004.55 1005.12 1005.91 1006.15 1006.62 1006.91 1007.01 1007.26 1007.79 1008.39 1008.87 1009.50 1010.28 1010.85 1011.21 1011.68 1012.21 1012.49 1012.78 1012.86 1013.40 1013.79 1014.13 1014.12 1015.04 1015.38 1015.33 1015.40 1015.79 1015.99 1016.36 1015.46 1014.97 1015.11 1015.53 1015.43 1015.22 1015.29 1015.17
999.81 999.96 1000.83 1000.33 1001.00 1001.65 1002.09 1003.96 1003.35 1003.87 1004.90 1005.41 1005.88 1006.19 1006.42 1006.71 1006.85 1007.08 1007.48 1008.14 1008.74 1009.27 1009.99 1010.65 1011.05 1011.62 1012.16 1012.45 1012.79 1012.93 1013.12 1013.51 1013.75 1014.52 1014.72 1014.63 1014.50 1014.69 1015.71 1015.91 1015.68 1015.36 1014.99 1014.58 1015.47 1015.57 1015.34 1015.12 1014.87
1001.52 1001.63 1001.93 1003.52 1002.85 1002.79 1002.64 1004.14 1003.37 1003.71 1004.51 1005.27 1005.68 1006.00 1006.26 1006.56 1006.84 1007.05 1007.44 1007.97 1008.61 1009.18 1009.88 1010.35 1010.80 1011.51 1011.99 1012.48 1012.85 1013.12 1013.30 1013.59 1013.77 1014.56 1015.18 1015.28 1014.77 1015.23 1015.53 1015.58 1015.41 1014.90 1015.01 1014.79 1015.24 1015.22 1015.21 1015.14 1014.94
1001.87 1002.07 1002.76 1003.69 1003.48 1002.01 1002.96 1003.47 1003.22 1003.39 1004.04 1004.98 1005.58 1005.87 1006.20 1006.40 1006.64 1006.92 1007.50 1008.02 1008.56 1009.09 1009.67 1010.19 1010.70 1011.40 1011.90 1012.28 1012.90 1013.35 1013.54 1013.56 1013.81 1014.32 1014.74 1015.03 1014.82 1015.31 1016.07 1015.65 1015.13 1014.97 1014.93 1015.04 1015.15 1015.10 1015.00 1014.82 1014.40
1001.14 1001.86 1002.69 1001.95 1003.11 1002.05 1002.82 1003.07 1003.42 1003.02 1004.24 1005.42 1005.75 1005.89 1006.58 1006.49 1006.28 1006.64 1007.31 1008.02 1008.67 1009.24 1009.76 1010.25 1010.65 1011.36 1011.93 1012.45 1013.01 1013.50 1013.66 1013.68 1014.16 1013.97 1013.58 1014.37 1014.85 1015.03 1015.56 1015.02 1015.18 1014.89 1015.11 1015.17 1015.01 1015.11 1015.03 1014.59 1014.24
1000.62 1001.35 1001.77 1001.49 1001.73 1001.39 1001.24 1002.27 1002.88 1003.25 1004.78 1004.33 1005.27 1006.62 1006.61 1006.21 1006.16 1006.46 1007.08 1007.91 1008.45 1009.18 1009.66 1010.11 1010.49 1011.02 1011.58 1012.02 1012.46 1012.89 1013.29 1013.60 1013.87 1014.19 1014.30 1014.28 1014.67 1014.40 1014.84 1015.01 1015.22 1015.03 1015.00 1015.44 1015.32 1015.42 1015.31 1014.99 1014.66
1000.10 1000.13 999.93 1001.02 1000.89 1000.32 1000.95 1002.21 1003.59 1004.65 1004.58 1003.55 1005.41 1006.06 1007.08 1006.23 1005.28 1006.03 1006.61 1007.46 1008.20 1008.78 1009.37 1009.83 1010.28 1010.67 1011.09 1011.56 1012.05 1012.53 1013.08 1013.46 1014.02 1014.37 1014.43 1014.33 1014.06 1014.24 1014.44 1014.73 1014.74 1015.05 1015.30 1015.61 1015.70 1015.51 1015.53 1015.64 1015.15
999.64 999.23 999.29 999.38 1000.17 1000.79 1000.96 1002.91 1003.95 1004.62 1004.24 1004.67 1006.88 1006.14 1006.02 1005.73 1004.36 1004.68 1005.75 1006.84 1007.64 1008.18 1008.65 1009.21 1009.76 1010.37 1010.70 1011.12 1011.76 1012.33 1012.87 1013.52 1013.68 1014.06 1014.21 1014.16 1013.97 1014.11 1014.30 1014.38 1014.63 1015.30 1015.77 1015.68 1015.48 1015.46 1015.57 1015.63 1015.93
999.27 999.12 999.48 999.76 1000.44 1000.88 1001.20 1002.75 1004.71 1005.05 1005.54 1005.34 1004.65 1003.96 1003.43 1003.76 1003.41 1003.75 1004.57 1005.48 1006.42 1007.43 1008.09 1008.77 1009.24 1009.82 1010.31 1010.85 1011.42 1012.10 1012.56 1013.07 1013.44 1013.79 1014.20 1014.37 1014.19 1013.93 1014.07 1014.33 1014.79 1015.37 1015.62 1015.61 1015.50 1015.66 1015.69 1015.81 1015.90
998.84 999.51 999.99 1000.41 1001.33 1001.99 1001.77 1002.59 1005.33 1005.01 1004.00 1004.30 1003.87 1003.09 1002.23 1002.73 1002.97 1003.43 1003.88 1004.69 1005.39 1006.46 1007.46 1008.22 1008.90 1009.45 1009.88 1010.43 1011.18 1011.75 1012.14 1013.01 1013.22 1013.63 1013.98 1014.40 1014.41 1014.29 1014.07 1014.26 1014.71 1014.90 1015.25 1015.51 1015.62 1015.94 1015.95 1015.94 1015.85
999.37 1000.31 1001.42 1002.42 1002.68 1002.59 1001.79 1002.62 1003.67 1003.40 1002.97 1002.77 1001.61 1001.98 1000.79 1001.71 1002.74 1003.66 1003.90 1004.22 1004.85 1005.87 1006.74 1007.71 1008.52 1009.20 1009.64 1010.15 1010.77 1011.24 1011.77 1012.67 1012.91 1013.41 1013.69 1014.05 1014.35 1014.51 1014.39 1014.48 1014.90 1015.05 1015.09 1015.41 1015.53 1015.92 1016.14 1016.00 1016.05
999.87 1000.63 1001.82 1002.73 1003.14 1002.54 1001.93 1002.76 1002.57 1001.22 1001.29 1001.58 1000.64 1001.12 1002.00 1002.00 1004.49 1004.00 1003.23 1003.47 1004.28 1004.92 1005.93 1007.13 1008.09 1008.70 1009.30 1009.83 1010.40 1010.81 1011.30 1011.92 1012.72 1013.07 1013.52 1013.80 1013.83 1013.99 1014.26 1014.31 1014.72 1014.84 1014.93 1015.25 1015.38 1015.88 1016.08 1016.05 1016.12
999.53 1000.23 1000.58 1002.03 1002.53 1002.81 1002.51 1003.04 1002.64 1002.08 1001.50 1002.45 1002.40 1003.12 1002.18 1003.86 1006.01 1004.65 1002.08 1002.32 1003.53 1004.34 1005.27 1006.34 1007.57 1008.22 1008.80 1009.50 1010.05 1010.39 1010.77 1011.35 1012.18 1012.59 1012.91 1013.38 1013.48 1013.85 1014.13 1014.31 1014.78 1015.02 1015.27 1015.42 1015.78 1016.17 1016.19 1016.21 1016.38
998.96 999.71 1000.78 1001.97 1003.30 1003.44 1002.41 1002.39 1001.91 1001.81 1001.27 1001.25 1001.00 1001.85 1003.51 1002.85 1002.56 1000.63 1001.55 1001.41 1002.44 1003.46 1004.82 1005.99 1006.92 1007.67 1008.38 1009.13 1009.71 1010.15 1010.43 1010.85 1011.50 1011.96 1012.49 1012.91 1013.34 1013.89 1014.08 1014.58 1014.94 1015.24 1015.50 1015.72 1016.05 1016.38 1016.54 1016.65 1016.76
998.80 999.51 1000.53 1001.81 1002.77 1003.30 1002.75 1002.55 1000.60 1000.32 1000.53 1000.02 1000.40 1000.66 1001.72 1001.52 1001.02 1001.43 1000.93 1001.15 1001.71 1002.80 1004.13 1005.56 1006.70 1007.59 1008.27 1008.90 1009.41 1010.04 1010.29 1010.67 1011.27 1011.86 1012.50 1012.86 1013.36 1013.76 1014.19 1014.73 1015.13 1015.56 1015.71 1015.94 1016.29 1016.71 1016.91 1017.30 1017.47
997.93 998.81 999.78 1001.60 1002.31 1002.35 1002.16 1001.76 1000.07 999.98 999.60 999.87 1000.58 1000.53 1000.69 999.97 999.99 999.73 1000.20 1001.71 1001.82 1002.94 1004.07 1005.31 1006.41 1007.25 1007.97 1008.64 1009.32 1010.07 1010.59 1010.98 1011.36 1011.60 1012.09 1012.76 1013.25 1013.76 1014.37 1014.97 1015.45 1015.73 1016.10 1016.36 1016.73 1017.00 1017.35 1017.71 1018.05
Thickness
5849 5845 5841 5831 5796 5794 5780 5799 5824 5813 5804 5813 5825 5811 5804 5810 5791 5757 5804 5799 5794 5786 5782 5780 5779 5778 5777 5776 5771 5773 5776 5776 5771 5770 5769 5768 5768 5769 5769 5766 5767 5764 5762 5761 5759 5754 5752 5752 5751
5853 5847 5843 5827 5794 5778 5788 5813 5809 5817 5805 5825 5822 5807 5805 5791 5816 5800 5796 5800 5797 5788 5784 5781 5780 5780 5780 5776 5774 5778 5778 5773 5771 5771 5772 5771 5771 5771 5770 5770 5766 5765 5763 5764 5763 5758 5755 5754 5753
5837 5847 5826 5811 5805 5787 5785 5813 5812 5828 5829 5824 5804 5815 5811 5796 5813 5808 5806 5804 5798 5790 5786 5782 5781 5779 5778 5777 5778 5778 5776 5773 5773 5773 5773 5774 5774 5772 5772 5769 5766 5765 5765 5765 5765 5761 5759 5758 5756
5841 5827 5836 5806 5806 5814 5804 5808 5816 5824 5827 5826 5821 5798 5814 5826 5815 5814 5812 5808 5799 5792 5787 5783 5781 5779 5778 5779 5779 5777 5775 5775 5775 5774 5775 5775 5775 5773 5771 5768 5767 5766 5765 5766 5765 5764 5761 5758 5758
5848 5821 5809 5806 5801 5809 5820 5833 5832 5823 5820 5814 5816 5795 5797 5817 5823 5820 5815 5808 5799 5792 5787 5783 5782 5780 5779 5779 5779 5779 5778 5776 5776 5776 5776 5775 5776 5774 5771 5769 5768 5767 5766 5766 5766 5765 5763 5760 5758
5830 5835 5801 5798 5821 5820 5830 5830 5820 5830 5824 5815 5806 5797 5793 5819 5818 5821 5818 5807 5803 5795 5788 5785 5782 5781 5780 5780 5780 5780 5779 5777 5777 5777 5775 5776 5776 5774 5772 5770 5769 5769 5769 5767 5767 5766 5765 5762 5760
5820 5815 5801 5823 5824 5831 5833 5838 5836 5831 5824 5815 5820 5791 5797 5808 5819 5821 5816 5809 5802 5796 5790 5786 5783 5781 5781 5781 5781 5781 5780 5778 5776 5776 5776 5776 5776 5774 5772 5770 5769 5769 5770 5770 5769 5768 5767 5764 5762
5854 5839 5819 5831 5822 5824 5851 5852 5853 5841 5826 5844 5837 5794 5789 5811 5824 5821 5818 5810 5803 5797 5792 5787 5785 5783 5783 5783 5783 5782 5780 5778 5777 5777 5776 5776 5776 5774 5772 5770 5769 5768 5769 5771 5771 5769 5768 5766 5764
5908 5841 5820 5832 5832 5839 5860 5847 5857 5857 5837 5845 5841 5827 5823 5826 5826 5818 5810 5803 5799 5797 5793 5790 5789 5787 5786 5785 5784 5783 5781 5780 5778 5777 5776 5774 5774 5774 5775 5775 5775 5773 5771 5770 5771 5770 5769 5767 5765
5878 5836 5847 5866 5860 5851 5862 5855 5846 5839 5835 5831 5829 5832 5830 5826 5821 5812 5803 5799 5797 5795 5796 5797 5794 5791 5788 5786 5785 5784 5784 5783 5780 5779 5777 5775 5775 5774 5774 5776 5777 5778 5776 5772 5771 5771 5771 5769 5767
5889 5850 5871 5874 5877 5876 5864 5859 5858 5832 5822 5834 5822 5822 5824 5821 5817 5816 5809 5808 5803 5804 5804 5800 5799 5796 5792 5790 5786 5785 5784 5783 5785 5782 5779 5778 5776 5772 5772 5773 5774 5775 5777 5776 5772 5772 5773 5772 5768
5869 5888 5880 5879 5885 5875 5863 5870 5855 5854 5847 5851 5842 5834 5826 5819 5816 5816 5812 5807 5804 5804 5807 5806 5804 5799 5796 5796 5790 5788 5786 5787 5787 5784 5780 5777 5778 5780 5776 5777 5773 5774 5775 5776 5776 5773 5773 5772 5770
5878 5883 5884 5887 5883 5877 5865 5846 5844 5849 5857 5855 5846 5836 5825 5821 5820 5821 5819 5815 5810 5804 5809 5806 5804 5800 5796 5794 5791 5792 5791 5790 5789 5785 5784 5783 5783 5782 5781 5780 5776 5773 5774 5774 5773 5772 5773 5774 5772
5890 5892 5885 5883 5878 5877 5853 5847 5859 5848 5861 5845 5840 5833 5828 5824 5823 5823 5820 5812 5811 5809 5807 5807 5804 5800 5796 5794 5795 5796 5796 5794 5791 5787 5786 5782 5777 5779 5778 5775 5772 5775 5778 5777 5771 5770 5775 5774 5774
5892 5871 5881 5875 5872 5863 5861 5832 5833 5852 5853 5840 5835 5835 5832 5828 5828 5823 5822 5817 5815 5811 5809 5805 5804 5804 5800 5799 5797 5798 5794 5790 5787 5789 5780 5778 5779 5780 5776 5772 5769 5776 5782 5779 5771 5772 5776 5776 5776
5865 5869 5831 5867 5872 5870 5860 5815 5849 5860 5846 5836 5835 5836 5834 5830 5830 5830 5829 5824 5821 5817 5811 5810 5809 5804 5800 5799 5797 5796 5795 5790 5789 5784 5782 5784 5788 5785 5774 5772 5774 5777 5782 5782 5770 5771 5773 5777 5779
5824 5810 5822 5811 5845 5850 5850 5819 5852 5863 5853 5840 5836 5836 5835 5831 5832 5833 5832 5829 5824 5819 5814 5811 5810 5805 5802 5799 5796 5793 5791 5788 5788 5786 5784 5782 5785 5779 5774 5773 5772 5779 5777 5781 5774 5772 5773 5774 5775
5813 5812 5820 5803 5819 5853 5836 5831 5853 5861 5858 5845 5838 5840 5835 5834 5833 5836 5833 5832 5828 5822 5818 5814 5811 5806 5803 5801 5795 5791 5790 5789 5790 5787 5786 5778 5781 5776 5767 5769 5774 5777 5779 5776 5772 5771 5773 5775 5778
5846 5819 5811 5837 5834 5850 5836 5839 5845 5861 5854 5838 5837 5836 5832 5836 5844 5843 5837 5834 5828 5824 5818 5815 5811 5806 5802 5797 5791 5788 5786 5789 5786 5790 5794 5786 5781 5775 5772 5775 5772 5775 5774 5771 5773 5771 5770 5774 5778
5846 5833 5821 5845 5854 5853 5859 5845 5851 5855 5834 5846 5840 5832 5834 5841 5842 5842 5837 5833 5829 5824 5822 5819 5816 5811 5806 5802 5798 5795 5791 5790 5791 5786 5785 5785 5780 5782 5777 5775 5774 5776 5776 5768 5769 5767 5767 5771 5775
5840 5837 5847 5826 5848 5870 5859 5834 5831 5828 5839 5861 5842 5840 5831 5837 5848 5843 5840 5833 5830 5826 5823 5822 5819 5817 5813 5809 5805 5800 5796 5791 5786 5785 5785 5786 5788 5784 5780 5777 5779 5776 5772 5766 5764 5767 5767 5762 5768
5820 5865 5868 5866 5842 5809 5856 5788 5818 5822 5831 5837 5814 5827 5827 5835 5860 5855 5845 5838 5832 5831 5833 5828 5824 5819 5817 5813 5806 5800 5791 5785 5789 5786 5787 5788 5786 5783 5780 5780 5776 5768 5762 5763 5767 5768 5766 5765 5758
5834 5863 5855 5855 5834 5833 5839 5810 5800 5825 5816 5823 5836 5845 5855 5853 5866 5862 5854 5851 5844 5838 5834 5831 5827 5824 5820 5815 5809 5801 5797 5793 5789 5787 5782 5779 5783 5781 5779 5776 5770 5765 5762 5763 5766 5764 5763 5762 5761
5867 5849 5841 5842 5825 5782 5824 5823 5776 5804 5822 5830 5842 5849 5869 5862 5858 5861 5860 5860 5854 5847 5840 5835 5828 5824 5822 5817 5809 5802 5798 5788 5789 5789 5783 5778 5779 5780 5780 5776 5770 5768 5766 5762 5761 5760 5760 5760 5761
5846 5823 5765 5764 5766 5776 5831 5815 5798 5832 5841 5845 5861 5860 5874 5869 5859 5852 5852 5855 5853 5848 5843 5837 5830 5823 5821 5815 5809 5804 5800 5790 5789 5787 5784 5779 5776 5776 5776 5775 5770 5768 5766 5761 5758 5756 5756 5757 5757
5822 5812 5763 5753 5756 5782 5836 5790 5808 5856 5862 5862 5866 5863 5852 5853 5833 5848 5856 5860 5855 5854 5848 5840 5831 5825 5820 5814 5809 5806 5802 5795 5789 5785 5780 5779 5779 5777 5778 5776 5769 5766 5766 5760 5757 5754 5754 5756 5754
5823 5799 5832 5799 5807 5781 5807 5813 5828 5841 5848 5842 5835 5833 5838 5830 5805 5820 5862 5870 5859 5859 5852 5844 5833 5829 5824 5816 5810 5807 5803 5799 5791 5787 5785 5782 5782 5779 5777 5773 5767 5765 5761 5758 5755 5750 5750 5750 5748
5840 5842 5789 5786 5769 5761 5794 5807 5799 5821 5831 5843 5841 5830 5803 5833 5846 5871 5868 5874 5869 5864 5856 5848 5840 5832 5826 5819 5812 5807 5803 5798 5793 5789 5784 5781 5779 5777 5772 5766 5763 5760 5757 5755 5751 5747 5745 5743 5742
5820 5807 5817 5803 5793 5764 5762 5782 5835 5834 5842 5847 5847 5849 5838 5851 5862 5858 5869 5873 5873 5869 5861 5848 5840 5831 5824 5818 5811 5804 5801 5796 5789 5784 5778 5776 5773 5768 5763 5760 5757 5753 5751 5749 5745 5741 5739 5734 5732
5847 5826 5817 5772 5782 5793 5787 5788 5854 5847 5856 5853 5837 5845 5849 5868 5868 5879 5874 5864 5871 5866 5858 5846 5839 5832 5825 5818 5810 5801 5794 5788 5783 5778 5777 5772 5764 5760 5756 5751 5748 5748 5743 5742 5738 5735 5732 5728 5724